Location: Mexico
(19.4000°N, 99.1500°W)
Time: 05:15:23
(UTC-06:00)

ISS - Pass Details

Date: 09 April 2020
Orbit: 417 x 419 km, 51.6° (Epoch: 31 May)

Event Time Altitude Azimuth Distance (km) Brightness Sun altitude
Rises 20:54:06 0° 294° (WNW) 2,348 1.3 -28.4°
Reaches altitude 10° 20:57:08 10° 263° (W) 1,482 -0.3 -29.1°
Enters shadow 20:57:47 12° 252° (WSW) 1,385 -0.6 -29.2°
